Username
Password
 
Info Terbaru :
  

Jackpot Winner Texas Poker

Kini Telah hadir Jackpot SUPER ROYAL FLUSH

Kini Telah hadir Jackpot 2000 (khusus table VIP keatas).

Ikutilah global jackpot yang tersedia di system kami, dengan system jackpot terbaru dan pertama di indonesia, anda dapat membeli jackpot dengan harga 100 rupiah saja dan menangkan hadiahnya hingga puluhan juta rupiah.

Jackpot bukanlah suatu keharusan untuk dibeli, namun kami memberikan suatu fitur tambahan untuk member tercinta dari www.logindp.com.

Terdapat tiga pilihan harga jackpot yang bisa anda beli yaitu :100,500,1000 dan 2000(khusus table VIP Keatas) rupiah.

Hadiah dari Multi jackpot system www.logindp.com

  1. full house x 10 harga jackpot yang anda beli.
      (contoH:anda membeli 1000 maka:1000 X10 = 10.000)
  2. four of kind x 250 harga jackpot yang anda beli
      (contoH:anda membeli 1000 maka:1000 X250 = 250.000)
  3. Straight flush x 1200
      (contoH:anda membeli 1000 maka:1000 X1200 = 1.200.000)
  4. Royal flush x 10000 harga jackpot yang anda beli
      (contoH:anda membeli 1000 maka:1000 X10000 = 10.000.000)
  5. SUPER ROYAL FLUSH x 30000 harga jackpot yang anda beli
      (contoH:anda membeli 1000 maka:1000 X30000 = 30.000.000)

Kondisi kartu

  1. full house adalah kondisi kartu dimana kartu anda dan kartu tengah dengan total 7 kartu bisa mendapatkan nilai 5 kartu dengan kombinasi 1 tris(three of kind) dan 1 pair, contoh 3 kartu 10 dan 2 kartu 5
  2. Four of kind adalah kondisi kartu dimana kartu anda dan kartu tengah dengan total 7 kartu bisa mendapatkan nilai 5 kartu dengan kombinasi 4 kartu yang sama jumlah dan 1 kartu apapun juga contoh anda mendapatkan 4 buah kartu angka 3 dan 1 kartu apapun.
  3. Straight flush adalah kondisi kartu dimana kartu anda dan kartu tengah dengan total 7 kartu bisa mendapatkan nilai 5 kartu dengan kombinasi seri / staright dengan kembang yang sama contoh : urutan kartu dari angka 5, 6, 7, 8 , 9 10 dengan kembang yg sama misalnya as hati
  4. Royal flush adalah kondisi kartu dimana kartu anda dan kartu tengah dengan total 7 kartu bisa mendapatkan nilai 5 kartu dengan kombinasi seri / staright dengan kembang yang sama tetapi kartu tersebut haruslah dimulai dari 10. contoh 10, Queen, Jack, King dan aces dengan kembang yang sama
  5. Super Royal flush adalah kondisi kartu dimana Kedua kartu anda digabung dengan 3 kartu pertama meja haruslah royal flush. contoh kartu anda10,Queen dan 3 kartu pertama meja adalah Jack, King dan aces dengan kembang yang sama

Demikian adalah penjelasan dari Multi Jackpot www.logindp.com terima kasih dan selamat bermain salam hoki dari kami


Jackpot Winner

TOP SUPER ROYAL FLUSH
No. Tanggal Nama Price Win
1 21/04 19:12 POZ88 Super Royal flush 6,000,000
2 21/04 17:27 COYYOUNFLO Super Royal flush 15,000,000
3 21/04 15:59 AHOK787 Super Royal flush 6,000,000
4 21/04 13:00 SEMBILAN81 Super Royal flush 15,000,000
5 21/04 04:00 B4NDARC3ME Super Royal flush 3,000,000
TOP ROYAL FLUSH
No. Tanggal Nama Price Win
1 21/04 20:31 DISAVP Royal flush 20,000,000
2 21/04 20:27 KENANGA01 Royal flush 1,000,000
3 21/04 20:18 REZEKY52 Royal flush 2,000,000
4 21/04 20:05 AZIZRT03 Royal flush 1,000,000
5 21/04 19:40 NAIKLAH80 Royal flush 1,000,000
TOP STRAIGHT FLUSH
No. Tanggal Nama Price Win
1 21/04 20:31 BULIONO12 Straight Flush 120,000
2 21/04 20:29 INVES757 Straight Flush 240,000
3 21/04 20:26 SIERRA8 Straight Flush 120,000
4 21/04 20:24 DEW44_KU Straight Flush 240,000
5 21/04 20:24 ZI142536 Straight Flush 2,400,000
LATEST JACKPOT
No. Tanggal Nama Price Win
1 21/04 20:36 N0VA532 Full House 1,000
2 21/04 20:36 MOD11CK Full House 2,000
3 21/04 20:36 TEMPANG29 Full House 5,000
4 21/04 20:36 IGARI88 Full House 5,000
5 21/04 20:36 ENTR05T0P Four Of A Kind 25,000
6 21/04 20:36 AFANDI2 Full House 10,000
7 21/04 20:36 DMMS23 Full House 2,000
8 21/04 20:36 SAHABAT83 Full House 20,000
9 21/04 20:36 SYIF27 Full House 1,000
10 21/04 20:36 JET_27 Full House 10,000
11 21/04 20:36 SERSAIII Full House 10,000
12 21/04 20:36 GORDON212 Full House 10,000
13 21/04 20:36 AQUWA77 Full House 2,000
14 21/04 20:36 LALAJP Full House 5,000
15 21/04 20:36 A_BE_N_N_G Full House 1,000
16 21/04 20:36 FIKI55 Full House 2,000
17 21/04 20:36 JONGKOK79 Full House 2,000
18 21/04 20:36 RAJAKITA26 Full House 5,000
19 21/04 20:36 DAYUWNGNAK Full House 5,000
20 21/04 20:36 MARIMAS888 Full House 5,000
21 21/04 20:36 SUCIABIL Full House 2,000
22 21/04 20:36 RAJAAKUU Full House 5,000
23 21/04 20:36 FATKHUR86 Full House 10,000
24 21/04 20:36 BIGUN Full House 10,000
25 21/04 20:36 SHEGONE08 Full House 1,000
26 21/04 20:36 DORGIS Four Of A Kind 50,000
27 21/04 20:36 MAWAR_33 Full House 5,000
28 21/04 20:36 JMBT_08 Full House 1,000
29 21/04 20:36 MIMIN3 Full House 1,000
30 21/04 20:36 FTORRES99 Full House 2,000
31 21/04 20:36 M7RTAXOLPT Full House 5,000
32 21/04 20:36 JAC1972 Full House 5,000
33 21/04 20:36 GALANG7272 Full House 5,000
34 21/04 20:36 DOAOMBA1 Full House 1,000
35 21/04 20:35 SKZ7YTSIWG Full House 10,000
36 21/04 20:35 D1ABCE31 Full House 10,000
37 21/04 20:35 MELENOY1 Full House 5,000
38 21/04 20:35 DWEJAT Full House 5,000
39 21/04 20:35 KI9E67BU8D Full House 2,000
40 21/04 20:35 ALMERA72 Full House 20,000
41 21/04 20:35 MACOK9 Full House 20,000
42 21/04 20:35 EXG3Q86BZN Full House 10,000
43 21/04 20:35 SANKURIA Full House 5,000
44 21/04 20:35 WUAAASUU88 Full House 2,000
45 21/04 20:35 SIGIVIRUS Four Of A Kind 50,000
46 21/04 20:35 WULAN40 Full House 2,000
47 21/04 20:35 PRIDA76 Full House 5,000
48 21/04 20:35 JONNYWON Full House 5,000
49 21/04 20:35 LT832 Full House 10,000
50 21/04 20:35 POLL_SEK99 Full House 1,000


Situs Poker Online
Dewapoker.com Hadir untuk semua pecinta permainan kartu poker online yang khususnya berada di asia. Dengan system teknology baru dan server kecepatan tinggi akan membuat permainan poker anda lebih seru dan menarik bersama teman2x anda maupun saingan anda. Cukup lakukan login dan langsung bermain tanpa download. Dewapoker.com dengan encrypsi server yang tinggi akan menjamin keamanan data para member.
Terms & Conditions Link Alternatif Video Dewapoker
© Copyright 2012 - 2018 Dewa Poker. All right reserved.
Dewa.FM